| time (UTC) | temp F | wind direction | speed MPH | gust MPH | rain 1hr in | rain 24hr in | rain mn in | humidity % | barometer mb |
| 20260502130315 | 72 | 127 | 8.0 | 12.0 | 0.00 | 0.43 | 0.02 | 67 | 1017.4 |
| 20260502123316 | 73 | 187 | 8.0 | 12.0 | 0.00 | 0.43 | 0.02 | 64 | 1017.8 |
| 20260502122831 | 73 | 166 | 6.0 | 14.0 | 0.00 | 0.43 | 0.02 | 66 | 1017.8 |
| 20260502122327 | 75 | 192 | 7.0 | 14.0 | 0.00 | 0.43 | 0.02 | 67 | 1017.9 |
| 20260502121821 | 73 | 128 | 6.0 | 11.0 | 0.00 | 0.43 | 0.02 | 70 | 1017.9 |
| 20260502121321 | 72 | 92 | 5.0 | 11.0 | 0.00 | 0.43 | 0.02 | 67 | 1018.0 |
| 20260502120815 | 73 | 150 | 6.0 | 15.0 | 0.00 | 0.43 | 0.02 | 65 | 1018.1 |
| 20260502120333 | 73 | 173 | 9.0 | 15.0 | 0.00 | 0.43 | 0.02 | 63 | 1018.1 |
| 20260502115828 | 73 | 124 | 10.0 | 12.0 | 0.00 | 0.43 | 0.02 | 65 | 1018.3 |
| 20260502115327 | 73 | 185 | 7.0 | 10.0 | 0.00 | 0.43 | 0.02 | 69 | 1018.3 |
| 20260502114842 | 72 | 144 | 5.0 | 13.0 | 0.00 | 0.43 | 0.02 | 68 | 1018.4 |
| 20260502114320 | 72 | 189 | 10.0 | 13.0 | 0.00 | 0.43 | 0.02 | 67 | 1018.5 |
| 20260502113814 | 72 | 117 | 7.0 | 12.0 | 0.00 | 0.43 | 0.02 | 69 | 1018.6 |
| 20260502113333 | 73 | 109 | 9.0 | 12.0 | 0.00 | 0.43 | 0.02 | 70 | 1018.6 |
| 20260502112828 | 73 | 65 | 3.0 | 12.0 | 0.00 | 0.43 | 0.02 | 68 | 1018.7 |
| 20260502112325 | 72 | 101 | 5.0 | 10.0 | 0.00 | 0.43 | 0.02 | 69 | 1018.8 |
| 20260502111817 | 72 | 142 | 4.0 | 9.0 | 0.00 | 0.43 | 0.02 | 68 | 1018.9 |
| 20260502111341 | 71 | 167 | 3.0 | 13.0 | 0.00 | 0.43 | 0.02 | 68 | 1018.9 |
| 20260502110854 | 71 | 157 | 7.0 | 13.0 | 0.00 | 0.43 | 0.02 | 68 | 1019.0 |
| 20260502110333 | 71 | 72 | 5.0 | 9.0 | 0.00 | 0.43 | 0.02 | 69 | 1018.9 |
| 20260502105827 | 71 | 141 | 3.0 | 11.0 | 0.00 | 0.43 | 0.02 | 68 | 1019.0 |
| 20260502105326 | 71 | 185 | 6.0 | 11.0 | 0.00 | 0.43 | 0.02 | 69 | 1019.1 |
| 20260502104818 | 71 | 135 | 6.0 | 11.0 | 0.00 | 0.43 | 0.02 | 68 | 1019.2 |
| 20260502104315 | 72 | 167 | 4.0 | 10.0 | 0.00 | 0.43 | 0.02 | 69 | 1019.2 |
| 20260502103830 | 71 | 167 | 5.0 | 10.0 | 0.00 | 0.43 | 0.02 | 68 | 1019.2 |
| 20260502103330 | 71 | 205 | 6.0 | 9.0 | 0.00 | 0.43 | 0.02 | 71 | 1019.3 |
| 20260502102840 | 70 | 136 | 7.0 | 11.0 | 0.00 | 0.43 | 0.02 | 71 | 1019.4 |
| 20260502102337 | 70 | 136 | 7.0 | 11.0 | 0.00 | 0.43 | 0.02 | 70 | 1019.5 |
| 20260502101332 | 70 | 102 | 6.0 | 10.0 | 0.00 | 0.43 | 0.02 | 75 | 1019.5 |
| 20260502100827 | 70 | 161 | 3.0 | 11.0 | 0.00 | 0.43 | 0.02 | 74 | 1019.5 |
| 20260502100324 | 70 | 165 | 2.0 | 8.0 | 0.00 | 0.43 | 0.02 | 72 | 1019.6 |
| 20260502091329 | 67 | 107 | 4.0 | 9.0 | 0.00 | 0.43 | 0.02 | 78 | 1020.1 |
| 20260502090843 | 68 | 108 | 6.0 | 9.0 | 0.00 | 0.43 | 0.02 | 78 | 1020.2 |
| 20260502090322 | 68 | 181 | 2.0 | 6.0 | 0.00 | 0.43 | 0.02 | 78 | 1020.2 |
| 20260502071327 | 60 | 174 | 1.0 | 2.0 | 0.00 | 0.43 | 0.02 | 91 | 1020.5 |
| 20260502070822 | 60 | 174 | 1.0 | 2.0 | 0.00 | 0.43 | 0.02 | 92 | 1020.5 |
| 20260502070320 | 59 | 174 | 1.0 | 2.0 | 0.00 | 0.43 | 0.02 | 93 | 1020.6 |
| 20260502065816 | 59 | 173 | 0.0 | 1.0 | 0.00 | 0.43 | 0.02 | 94 | 1020.5 |
| 20260502065335 | 58 | 173 | 0.0 | 1.0 | 0.00 | 0.43 | 0.02 | 95 | 1020.6 |
| 20260502064828 | 58 | 173 | 0.0 | 1.0 | 0.00 | 0.43 | 0.02 | 95 | 1020.6 |
| 20260502064324 | 57 | 173 | 0.0 | 1.0 | 0.00 | 0.43 | 0.02 | 95 | 1020.6 |
| 20260502063819 | 57 | 173 | 1.0 | 1.0 | 0.00 | 0.43 | 0.02 | 95 | 1020.6 |
| 20260502063316 | 56 | 173 | 0.0 | 2.0 | 0.00 | 0.43 | 0.02 | 95 | 1020.6 |
| 20260502062831 | 56 | 173 | 1.0 | 2.0 | 0.00 | 0.43 | 0.02 | 95 | 1020.7 |
| 20260502062329 | 56 | 173 | 0.0 | 1.0 | 0.00 | 0.43 | 0.02 | 95 | 1020.6 |
| 20260502061843 | 56 | 173 | 0.0 | 1.0 | 0.00 | 0.43 | 0.02 | 95 | 1020.7 |
| 20260502061334 | 56 | 173 | 0.0 | 0.0 | 0.00 | 0.43 | 0.02 | 95 | 1020.7 |
| 20260502060849 | 55 | 173 | 0.0 | 2.0 | 0.00 | 0.43 | 0.02 | 95 | 1020.6 |
| 20260502060345 | 54 | 173 | 1.0 | 2.0 | 0.00 | 0.43 | 0.02 | 95 | 1020.6 |
| 20260502055817 | 54 | 172 | 1.0 | 1.0 | 0.00 | 0.43 | 0.02 | 95 | 1020.6 |
| 20260502055336 | 53 | 177 | 0.0 | 2.0 | 0.00 | 0.43 | 0.02 | 95 | 1020.6 |
| 20260502054852 | 52 | 177 | 0.0 | 2.0 | 0.00 | 0.43 | 0.02 | 94 | 1020.6 |
| 20260502054351 | 53 | 177 | 1.0 | 2.0 | 0.00 | 0.43 | 0.02 | 95 | 1020.6 |
| 20260502053826 | 53 | 177 | 1.0 | 2.0 | 0.00 | 0.43 | 0.02 | 95 | 1020.5 |
| 20260502053325 | 52 | 176 | 0.0 | 1.0 | 0.00 | 0.43 | 0.02 | 95 | 1020.6 |
| 20260502052819 | 52 | 176 | 0.0 | 1.0 | 0.00 | 0.43 | 0.02 | 95 | 1020.6 |
| 20260502052315 | 51 | 176 | 0.0 | 0.0 | 0.00 | 0.43 | 0.02 | 94 | 1020.6 |
| 20260502051830 | 51 | 176 | 0.0 | 0.0 | 0.00 | 0.43 | 0.02 | 94 | 1020.6 |
| 20260502051327 | 51 | 176 | 0.0 | 1.0 | 0.00 | 0.43 | 0.02 | 94 | 1020.6 |
| 20260502050844 | 51 | 175 | 0.0 | 1.0 | 0.00 | 0.43 | 0.02 | 94 | 1020.5 |
| 20260502050321 | 50 | 175 | 0.0 | 1.0 | 0.00 | 0.43 | 0.02 | 94 | 1020.5 |
| 20260502045832 | 51 | 175 | 0.0 | 0.0 | 0.00 | 0.43 | 0.02 | 94 | 1020.5 |
| 20260502045330 | 51 | 175 | 0.0 | 0.0 | 0.00 | 0.43 | 0.02 | 94 | 1020.6 |
| 20260502044824 | 51 | 175 | 0.0 | 0.0 | 0.00 | 0.43 | 0.02 | 94 | 1020.6 |
| 20260502044323 | 51 | 175 | 0.0 | 0.0 | 0.00 | 0.43 | 0.02 | 94 | 1020.6 |
| 20260502043818 | 52 | 175 | 0.0 | 1.0 | 0.00 | 0.43 | 0.02 | 94 | 1020.5 |
| 20260502043315 | 52 | 175 | 0.0 | 2.0 | 0.00 | 0.43 | 0.02 | 94 | 1020.5 |
| 20260502042832 | 51 | 175 | 1.0 | 2.0 | 0.00 | 0.43 | 0.02 | 94 | 1020.5 |
| 20260502042330 | 52 | 175 | 0.0 | 1.0 | 0.00 | 0.43 | 0.02 | 94 | 1020.6 |
| 20260502041825 | 52 | 175 | 0.0 | 1.0 | 0.00 | 0.43 | 0.02 | 94 | 1020.5 |
| 20260502041323 | 51 | 175 | 0.0 | 1.0 | 0.00 | 0.43 | 0.02 | 94 | 1020.5 |
| 20260502040817 | 52 | 175 | 0.0 | 1.0 | 0.00 | 0.43 | 0.02 | 94 | 1020.5 |
| 20260502040316 | 52 | 175 | 0.0 | 0.0 | 0.00 | 0.43 | 0.02 | 94 | 1020.5 |
| 20260502035832 | 52 | 175 | 0.0 | 1.0 | 0.00 | 0.43 | 0.02 | 94 | 1020.4 |
| 20260502035330 | 52 | 175 | 0.0 | 1.0 | 0.00 | 0.43 | 0.02 | 94 | 1020.6 |
| 20260502034846 | 53 | 175 | 1.0 | 1.0 | 0.00 | 0.43 | 0.02 | 94 | 1020.6 |
| 20260502034324 | 52 | 175 | 0.0 | 0.0 | 0.00 | 0.43 | 0.02 | 94 | 1020.6 |
| 20260502033818 | 52 | 175 | 0.0 | 0.0 | 0.00 | 0.43 | 0.02 | 94 | 1020.7 |
| 20260502033316 | 52 | 175 | 0.0 | 0.0 | 0.00 | 0.43 | 0.02 | 94 | 1020.7 |
| 20260502032831 | 52 | 175 | 0.0 | 0.0 | 0.00 | 0.43 | 0.02 | 94 | 1020.7 |
| 20260502032325 | 52 | 175 | 0.0 | 1.0 | 0.00 | 0.43 | 0.02 | 94 | 1020.8 |
| 20260502031840 | 52 | 175 | 0.0 | 1.0 | 0.00 | 0.43 | 0.02 | 94 | 1020.8 |
| 20260502031336 | 52 | 175 | 0.0 | 2.0 | 0.00 | 0.43 | 0.02 | 94 | 1020.8 |
| 20260502030849 | 52 | 174 | 1.0 | 2.0 | 0.00 | 0.43 | 0.02 | 94 | 1020.8 |
| 20260502030327 | 52 | 174 | 0.0 | 2.0 | 0.00 | 0.43 | 0.02 | 94 | 1020.8 |
| 20260502025821 | 51 | 174 | 1.0 | 2.0 | 0.00 | 0.43 | 0.02 | 93 | 1020.8 |
| 20260502025337 | 51 | 174 | 0.0 | 0.0 | 0.00 | 0.43 | 0.02 | 94 | 1020.8 |
| 20260502024853 | 51 | 174 | 0.0 | 0.0 | 0.00 | 0.43 | 0.02 | 94 | 1020.9 |
| 20260502024329 | 51 | 173 | 0.0 | 0.0 | 0.00 | 0.43 | 0.02 | 93 | 1021.0 |
| 20260502023824 | 51 | 174 | 0.0 | 0.0 | 0.00 | 0.43 | 0.02 | 93 | 1020.9 |
| 20260502023320 | 52 | 174 | 0.0 | 1.0 | 0.00 | 0.43 | 0.02 | 94 | 1021.0 |
| 20260502022818 | 52 | 174 | 0.0 | 1.0 | 0.00 | 0.43 | 0.02 | 93 | 1021.0 |
| 20260502022317 | 51 | 174 | 0.0 | 1.0 | 0.00 | 0.43 | 0.02 | 93 | 1021.1 |
| 20260502021831 | 52 | 174 | 0.0 | 1.0 | 0.00 | 0.43 | 0.02 | 93 | 1021.2 |
| 20260502021329 | 53 | 174 | 0.0 | 1.0 | 0.00 | 0.43 | 0.02 | 94 | 1021.2 |
| 20260502020824 | 52 | 173 | 0.0 | 1.0 | 0.00 | 0.43 | 0.02 | 93 | 1021.2 |
| 20260502020322 | 52 | 173 | 0.0 | 1.0 | 0.00 | 0.43 | 0.02 | 93 | 1021.2 |
| 20260502015815 | 52 | 173 | 0.0 | 1.0 | 0.00 | 0.43 | 0.02 | 93 | 1021.2 |
| 20260502015331 | 52 | 173 | 0.0 | 2.0 | 0.00 | 0.43 | 0.02 | 93 | 1021.2 |
| 20260502014827 | 53 | 173 | 0.0 | 2.0 | 0.00 | 0.43 | 0.02 | 93 | 1021.2 |
| 20260502014325 | 52 | 173 | 0.0 | 1.0 | 0.00 | 0.43 | 0.02 | 93 | 1021.2 |
| 20260502013820 | 52 | 173 | 0.0 | 3.0 | 0.00 | 0.43 | 0.02 | 92 | 1021.2 |
| 20260502013319 | 53 | 173 | 0.0 | 3.0 | 0.00 | 0.43 | 0.02 | 93 | 1021.3 |
| 20260502012836 | 53 | 173 | 0.0 | 2.0 | 0.04 | 0.43 | 0.02 | 92 | 1021.3 |
| 20260502012333 | 53 | 173 | 1.0 | 2.0 | 0.04 | 0.43 | 0.02 | 93 | 1021.2 |
| 20260502011828 | 53 | 173 | 0.0 | 1.0 | 0.04 | 0.43 | 0.02 | 93 | 1021.3 |
| 20260502011325 | 53 | 173 | 0.0 | 0.0 | 0.04 | 0.43 | 0.02 | 92 | 1021.3 |
| 20260502010818 | 53 | 173 | 0.0 | 0.0 | 0.04 | 0.43 | 0.02 | 92 | 1021.3 |
| 20260502010316 | 54 | 173 | 0.0 | 1.0 | 0.04 | 0.43 | 0.02 | 92 | 1021.3 |
| 20260502005830 | 54 | 172 | 0.0 | 1.0 | 0.04 | 0.43 | 0.02 | 92 | 1021.4 |
| 20260502005327 | 54 | 172 | 0.0 | 0.0 | 0.04 | 0.43 | 0.02 | 92 | 1021.4 |
| 20260502004822 | 54 | 173 | 0.0 | 0.0 | 0.04 | 0.43 | 0.02 | 92 | 1021.3 |
| 20260502004335 | 54 | 173 | 0.0 | 0.0 | 0.04 | 0.43 | 0.02 | 91 | 1021.3 |
| 20260502003830 | 55 | 173 | 0.0 | 0.0 | 0.04 | 0.43 | 0.02 | 91 | 1021.3 |
| 20260502003327 | 55 | 173 | 0.0 | 1.0 | 0.04 | 0.43 | 0.02 | 91 | 1021.3 |
| 20260502002821 | 55 | 173 | 1.0 | 2.0 | 0.00 | 0.39 | 0.01 | 91 | 1021.4 |
| 20260502002320 | 56 | 173 | 1.0 | 4.0 | 0.04 | 0.39 | 0.01 | 91 | 1021.4 |
| 20260502001835 | 56 | 173 | 2.0 | 4.0 | 0.04 | 0.39 | 0.01 | 91 | 1021.4 |
| 20260502001352 | 56 | 180 | 1.0 | 5.0 | 0.04 | 0.39 | 0.01 | 91 | 1021.5 |
| 20260502000828 | 56 | 156 | 1.0 | 5.0 | 0.04 | 0.39 | 0.01 | 91 | 1021.6 |
| 20260502000325 | 56 | 156 | 0.0 | 5.0 | 0.04 | 0.39 | 0.01 | 91 | 1021.7 |
| 20260501235821 | 56 | 157 | 2.0 | 6.0 | 0.04 | 0.39 | 0.01 | 91 | 1021.8 |
| 20260501235321 | 56 | 171 | 3.0 | 6.0 | 0.04 | 0.39 | 0.01 | 91 | 1022.0 |
| 20260501234817 | 56 | 194 | 2.0 | 5.0 | 0.04 | 0.39 | 0.01 | 90 | 1022.1 |
| 20260501234315 | 57 | 118 | 1.0 | 3.0 | 0.04 | 0.39 | 0.01 | 90 | 1022.0 |
| 20260501233857 | 57 | 118 | 0.0 | 3.0 | 0.04 | 0.39 | 0.01 | 90 | 1022.0 |
| 20260501233331 | 57 | 69 | 0.0 | 4.0 | 0.04 | 0.39 | 0.01 | 90 | 1022.0 |
| 20260501232826 | 56 | 69 | 0.0 | 4.0 | 0.04 | 0.39 | 0.01 | 91 | 1021.8 |
| 20260501232323 | 56 | 165 | 2.0 | 7.0 | 0.00 | 0.35 | 0.00 | 90 | 1021.9 |
| 20260501231816 | 56 | 153 | 3.0 | 8.0 | 0.00 | 0.35 | 0.00 | 91 | 1022.5 |
| 20260501231313 | 55 | 160 | 4.0 | 9.0 | 0.00 | 0.35 | 0.00 | 92 | 1022.7 |
| 20260501230828 | 55 | 145 | 6.0 | 9.0 | 0.00 | 0.35 | 0.00 | 91 | 1022.7 |
| 20260501230326 | 55 | 198 | 3.0 | 5.0 | 0.00 | 0.35 | 0.00 | 91 | 1022.4 |
| 20260501225818 | 55 | 213 | 4.0 | 5.0 | 0.00 | 0.35 | 0.00 | 91 | 1022.2 |
| 20260501225333 | 55 | 190 | 2.0 | 4.0 | 0.00 | 0.35 | 0.00 | 91 | 1022.0 |
| 20260501224828 | 55 | 177 | 2.0 | 3.0 | 0.00 | 0.35 | 0.00 | 90 | 1021.9 |
| 20260501224326 | 55 | 194 | 1.0 | 3.0 | 0.00 | 0.35 | 0.00 | 90 | 1021.9 |
| 20260501223822 | 55 | 76 | 1.0 | 2.0 | 0.04 | 0.35 | 0.00 | 90 | 1021.8 |
| 20260501223317 | 56 | 75 | 0.0 | 3.0 | 0.04 | 0.35 | 0.00 | 89 | 1021.7 |
| 20260501222831 | 56 | 75 | 1.0 | 3.0 | 0.04 | 0.35 | 0.00 | 89 | 1021.7 |
| 20260501222329 | 56 | 86 | 1.0 | 4.0 | 0.04 | 0.35 | 0.00 | 90 | 1021.7 |
| 20260501221824 | 56 | 143 | 1.0 | 3.0 | 0.04 | 0.35 | 0.00 | 89 | 1021.8 |
| 20260501221321 | 57 | 180 | 1.0 | 3.0 | 0.04 | 0.35 | 0.00 | 88 | 1021.8 |
| 20260501220816 | 57 | 81 | 1.0 | 2.0 | 0.04 | 0.35 | 0.00 | 87 | 1021.8 |
| 20260501220313 | 58 | 81 | 0.0 | 3.0 | 0.04 | 0.35 | 0.00 | 85 | 1021.8 |
| 20260501215827 | 58 | 81 | 1.0 | 3.0 | 0.04 | 0.35 | 0.07 | 86 | 1021.7 |
| 20260501215326 | 58 | 81 | 1.0 | 4.0 | 0.04 | 0.35 | 0.07 | 87 | 1021.7 |
| 20260501214821 | 58 | 81 | 2.0 | 3.0 | 0.04 | 0.35 | 0.07 | 86 | 1021.7 |
| 20260501214338 | 59 | 81 | 1.0 | 5.0 | 0.00 | 0.31 | 0.06 | 85 | 1021.8 |
| 20260501213836 | 59 | 81 | 2.0 | 5.0 | 0.00 | 0.31 | 0.06 | 83 | 1021.8 |
| 20260501213354 | 59 | 62 | 3.0 | 6.0 | 0.00 | 0.31 | 0.06 | 84 | 1021.8 |
| 20260501212827 | 59 | 65 | 3.0 | 8.0 | 0.00 | 0.31 | 0.06 | 84 | 1021.8 |
| 20260501212323 | 59 | 80 | 4.0 | 8.0 | 0.00 | 0.31 | 0.06 | 83 | 1021.8 |
| 20260501211818 | 59 | 64 | 4.0 | 9.0 | 0.00 | 0.31 | 0.06 | 83 | 1021.9 |
| 20260501211318 | 59 | 78 | 4.0 | 10.0 | 0.00 | 0.31 | 0.06 | 83 | 1021.9 |
| 20260501210833 | 59 | 70 | 4.0 | 9.0 | 0.00 | 0.31 | 0.06 | 83 | 1021.9 |
| 20260501210333 | 59 | 76 | 4.0 | 10.0 | 0.00 | 0.31 | 0.06 | 84 | 1022.0 |
| 20260501205830 | 59 | 71 | 5.0 | 13.0 | 0.00 | 0.31 | 0.06 | 84 | 1022.0 |
| 20260501205326 | 59 | 40 | 7.0 | 13.0 | 0.00 | 0.31 | 0.06 | 84 | 1022.1 |
| 20260501204841 | 59 | 68 | 3.0 | 10.0 | 0.00 | 0.31 | 0.06 | 83 | 1022.1 |
| 20260501204317 | 60 | 60 | 6.0 | 13.0 | 0.00 | 0.31 | 0.06 | 83 | 1022.1 |
| 20260501203831 | 59 | 88 | 6.0 | 13.0 | 0.00 | 0.31 | 0.06 | 83 | 1022.2 |
| 20260501203330 | 59 | 78 | 5.0 | 11.0 | 0.00 | 0.31 | 0.06 | 84 | 1022.2 |
| 20260501202828 | 59 | 79 | 7.0 | 12.0 | 0.00 | 0.31 | 0.06 | 85 | 1022.2 |
| 20260501202347 | 59 | 69 | 7.0 | 12.0 | 0.00 | 0.31 | 0.06 | 85 | 1022.2 |
| 20260501201840 | 59 | 61 | 5.0 | 13.0 | 0.04 | 0.31 | 0.06 | 85 | 1022.1 |
| 20260501201359 | 59 | 67 | 6.0 | 13.0 | 0.04 | 0.31 | 0.06 | 85 | 1022.2 |
| 20260501200832 | 59 | 57 | 7.0 | 13.0 | 0.04 | 0.31 | 0.06 | 85 | 1022.3 |
| 20260501200326 | 59 | 54 | 6.0 | 10.0 | 0.04 | 0.31 | 0.06 | 85 | 1022.4 |
| 20260501195821 | 59 | 34 | 3.0 | 8.0 | 0.04 | 0.31 | 0.06 | 86 | 1022.5 |
| 20260501195319 | 58 | 75 | 4.0 | 6.0 | 0.08 | 0.31 | 0.06 | 87 | 1022.5 |
| 20260501194816 | 59 | 65 | 4.0 | 7.0 | 0.20 | 0.31 | 0.06 | 86 | 1022.4 |
| 20260501194313 | 59 | 80 | 3.0 | 11.0 | 0.31 | 0.31 | 0.06 | 84 | 1022.3 |
| 20260501193854 | 59 | 56 | 6.0 | 12.0 | 0.31 | 0.31 | 0.06 | 83 | 1022.3 |
| 20260501193331 | 60 | 66 | 5.0 | 10.0 | 0.31 | 0.31 | 0.06 | 83 | 1022.3 |
| 20260501192826 | 60 | 26 | 4.0 | 11.0 | 0.31 | 0.31 | 0.06 | 83 | 1022.3 |
| 20260501192319 | 60 | 69 | 7.0 | 11.0 | 0.28 | 0.28 | 0.06 | 84 | 1022.6 |
| 20260501191816 | 59 | 101 | 6.0 | 9.0 | 0.28 | 0.28 | 0.06 | 87 | 1022.5 |
| 20260501191359 | 59 | 81 | 1.0 | 5.0 | 0.28 | 0.28 | 0.06 | 87 | 1022.2 |
| 20260501190832 | 59 | 56 | 4.0 | 6.0 | 0.28 | 0.28 | 0.06 | 87 | 1022.0 |
| 20260501190352 | 59 | 41 | 3.0 | 9.0 | 0.28 | 0.28 | 0.06 | 86 | 1021.9 |
| 20260501185847 | 60 | 54 | 4.0 | 10.0 | 0.28 | 0.28 | 0.06 | 85 | 1021.8 |
| 20260501185324 | 60 | 153 | 4.0 | 12.0 | 0.24 | 0.24 | 0.05 | 84 | 1022.0 |
| 20260501184820 | 61 | 78 | 8.0 | 18.0 | 0.12 | 0.12 | 0.02 | 81 | 1022.1 |
| 20260501184318 | 62 | 149 | 11.0 | 19.0 | 0.00 | 0.00 | 0.00 | 80 | 1022.5 |
| 20260501183835 | 64 | 211 | 10.0 | 19.0 | 0.00 | 0.00 | 0.00 | 77 | 1022.6 |
| 20260501183331 | 66 | 182 | 12.0 | 20.0 | 0.00 | 0.00 | 0.00 | 71 | 1022.4 |
| 20260501182854 | 65 | 159 | 8.0 | 13.0 | 0.00 | 0.00 | 0.00 | 72 | 1022.0 |
| 20260501182330 | 65 | 111 | 0.0 | 1.0 | 0.00 | 0.00 | 0.00 | 71 | 1021.6 |
| 20260501181825 | 66 | 111 | 1.0 | 1.0 | 0.00 | 0.00 | 0.00 | 71 | 1021.4 |
| 20260501181323 | 66 | 111 | 1.0 | 1.0 | 0.00 | 0.00 | 0.00 | 71 | 1021.3 |
| 20260501180818 | 66 | 111 | 0.0 | 1.0 | 0.00 | 0.00 | 0.00 | 72 | 1021.2 |
| 20260501180337 | 66 | 111 | 0.0 | 2.0 | 0.00 | 0.00 | 0.00 | 70 | 1021.2 |
| 20260501175852 | 67 | 111 | 1.0 | 2.0 | 0.00 | 0.00 | 0.00 | 67 | 1021.2 |
| 20260501175328 | 67 | 111 | 0.0 | 2.0 | 0.00 | 0.00 | 0.00 | 66 | 1021.1 |
| 20260501174823 | 67 | 111 | 0.0 | 2.0 | 0.00 | 0.00 | 0.00 | 66 | 1021.1 |
| 20260501174321 | 67 | 111 | 1.0 | 2.0 | 0.00 | 0.00 | 0.00 | 66 | 1020.9 |
| 20260501173835 | 68 | 111 | 0.0 | 2.0 | 0.00 | 0.00 | 0.00 | 64 | 1021.0 |
| 20260501173332 | 68 | 111 | 0.0 | 2.0 | 0.00 | 0.00 | 0.00 | 62 | 1021.1 |
| 20260501172822 | 68 | 111 | 1.0 | 2.0 | 0.00 | 0.00 | 0.00 | 61 | 1020.9 |
| 20260501172322 | 69 | 111 | 0.0 | 2.0 | 0.00 | 0.00 | 0.00 | 59 | 1020.8 |
| 20260501171836 | 70 | 111 | 1.0 | 3.0 | 0.00 | 0.00 | 0.00 | 57 | 1020.7 |
| 20260501171314 | 71 | 111 | 2.0 | 6.0 | 0.00 | 0.00 | 0.00 | 56 | 1020.6 |
| 20260501170828 | 72 | 111 | 3.0 | 6.0 | 0.00 | 0.00 | 0.00 | 52 | 1020.6 |
| 20260501170325 | 72 | 146 | 3.0 | 7.0 | 0.00 | 0.00 | 0.00 | 51 | 1020.7 |
| 20260501165823 | 72 | 114 | 5.0 | 7.0 | 0.00 | 0.00 | 0.00 | 51 | 1020.7 |
| 20260501165343 | 73 | 157 | 3.0 | 5.0 | 0.00 | 0.00 | 0.00 | 50 | 1020.6 |
| 20260501164818 | 73 | 103 | 2.0 | 7.0 | 0.00 | 0.00 | 0.00 | 49 | 1020.6 |
| 20260501164316 | 73 | 140 | 2.0 | 8.0 | 0.00 | 0.00 | 0.00 | 50 | 1020.6 |
| 20260501163832 | 73 | 134 | 3.0 | 5.0 | 0.00 | 0.00 | 0.00 | 48 | 1020.6 |
| 20260501163330 | 73 | 123 | 2.0 | 7.0 | 0.00 | 0.00 | 0.00 | 51 | 1020.6 |
| 20260501162824 | 73 | 157 | 3.0 | 7.0 | 0.00 | 0.00 | 0.00 | 49 | 1020.7 |
| 20260501162320 | 73 | 81 | 2.0 | 8.0 | 0.00 | 0.00 | 0.00 | 50 | 1020.8 |
| 20260501161815 | 73 | 102 | 6.0 | 8.0 | 0.00 | 0.00 | 0.00 | 48 | 1020.9 |
| 20260501161334 | 73 | 143 | 2.0 | 7.0 | 0.00 | 0.00 | 0.00 | 49 | 1020.9 |
| 20260501160827 | 73 | 143 | 3.0 | 7.0 | 0.00 | 0.00 | 0.00 | 50 | 1020.9 |
| 20260501160323 | 73 | 117 | 3.0 | 5.0 | 0.00 | 0.00 | 0.00 | 49 | 1021.0 |
| 20260501155819 | 73 | 207 | 1.0 | 5.0 | 0.00 | 0.00 | 0.00 | 49 | 1021.1 |
| 20260501155317 | 73 | 139 | 3.0 | 5.0 | 0.00 | 0.00 | 0.00 | 52 | 1021.2 |
| 20260501154833 | 73 | 73 | 1.0 | 6.0 | 0.00 | 0.00 | 0.00 | 50 | 1021.2 |
| 20260501154332 | 74 | 82 | 2.0 | 6.0 | 0.00 | 0.00 | 0.00 | 49 | 1021.2 |
| 20260501153827 | 74 | 55 | 2.0 | 9.0 | 0.00 | 0.00 | 0.00 | 51 | 1021.3 |
| 20260501153323 | 74 | 77 | 5.0 | 9.0 | 0.00 | 0.00 | 0.00 | 47 | 1021.4 |
| 20260501152816 | 74 | 57 | 3.0 | 9.0 | 0.00 | 0.00 | 0.00 | 51 | 1021.5 |
| 20260501152335 | 74 | 63 | 1.0 | 7.0 | 0.00 | 0.00 | 0.00 | 51 | 1021.6 |
| 20260501151829 | 74 | 162 | 5.0 | 7.0 | 0.00 | 0.00 | 0.00 | 47 | 1021.6 |
| 20260501151347 | 74 | 327 | 2.0 | 4.0 | 0.00 | 0.00 | 0.00 | 48 | 1021.7 |
| 20260501150821 | 73 | 335 | 2.0 | 8.0 | 0.00 | 0.00 | 0.00 | 47 | 1021.8 |
| 20260501150320 | 74 | 93 | 5.0 | 8.0 | 0.00 | 0.00 | 0.00 | 48 | 1021.8 |
| 20260501145814 | 74 | 146 | 3.0 | 7.0 | 0.00 | 0.00 | 0.00 | 50 | 1021.8 |
| 20260501145329 | 74 | 105 | 4.0 | 6.0 | 0.00 | 0.00 | 0.00 | 47 | 1021.9 |
| 20260501144824 | 74 | 164 | 2.0 | 9.0 | 0.00 | 0.00 | 0.00 | 48 | 1021.9 |
| 20260501144340 | 74 | 146 | 5.0 | 9.0 | 0.00 | 0.00 | 0.00 | 48 | 1022.0 |
| 20260501143833 | 74 | 95 | 5.0 | 9.0 | 0.00 | 0.00 | 0.00 | 49 | 1022.0 |
| 20260501143331 | 74 | 103 | 5.0 | 9.0 | 0.00 | 0.00 | 0.00 | 49 | 1022.1 |
| 20260501142826 | 74 | 197 | 3.0 | 7.0 | 0.00 | 0.00 | 0.00 | 50 | 1022.1 |
| 20260501142325 | 74 | 123 | 3.0 | 10.0 | 0.00 | 0.00 | 0.00 | 47 | 1022.2 |
| 20260501141821 | 74 | 167 | 6.0 | 10.0 | 0.00 | 0.00 | 0.00 | 47 | 1022.2 |
| 20260501141319 | 73 | 143 | 5.0 | 10.0 | 0.00 | 0.00 | 0.00 | 48 | 1022.1 |
| 20260501140833 | 74 | 115 | 4.0 | 9.0 | 0.00 | 0.00 | 0.00 | 49 | 1022.1 |
| 20260501140331 | 74 | 204 | 4.0 | 9.0 | 0.00 | 0.00 | 0.00 | 47 | 1022.2 |
| 20260501135321 | 73 | 157 | 6.0 | 10.0 | 0.00 | 0.00 | 0.00 | 47 | 1022.3 |
| 20260501134817 | 73 | 119 | 7.0 | 9.0 | 0.00 | 0.00 | 0.00 | 47 | 1022.3 |
| 20260501134314 | 73 | 71 | 5.0 | 12.0 | 0.00 | 0.00 | 0.00 | 47 | 1022.3 |
| 20260501133830 | 73 | 114 | 8.0 | 12.0 | 0.00 | 0.00 | 0.00 | 45 | 1022.3 |
| 20260501133349 | 73 | 208 | 3.0 | 10.0 | 0.00 | 0.00 | 0.00 | 46 | 1022.4 |